| time (UTC) | temp F | wind direction | speed MPH | gust MPH | rain 1hr in | rain 24hr in | rain mn in | humidity % | barometer mb |
| 20260902174003 | 76 | 190 | 0.0 | 4.0 | 0.00 | 0.05 | 0.00 | 58 | 1020.2 |
| 20260902173503 | 75 | 190 | 0.0 | 4.0 | 0.00 | 0.06 | 0.00 | 56 | 1020.2 |
| 20260902173103 | 74 | 190 | 0.0 | 3.0 | 0.00 | 0.06 | 0.00 | 57 | 1020.5 |
| 20260902173003 | 75 | 191 | 0.0 | 3.0 | 0.00 | 0.06 | 0.00 | 56 | 1020.2 |
| 20260902172503 | 74 | 191 | 0.0 | 4.0 | 0.00 | 0.06 | 0.00 | 59 | 1020.1 |
| 20260902172004 | 74 | 191 | 1.0 | 5.0 | 0.00 | 0.06 | 0.00 | 58 | 1020.1 |
| 20260902171602 | 73 | 190 | 0.0 | 5.0 | 0.00 | 0.06 | 0.00 | 57 | 1020.4 |
| 20260902171503 | 74 | 191 | 1.0 | 5.0 | 0.00 | 0.06 | 0.00 | 60 | 1020.1 |
| 20260902171004 | 74 | 191 | 1.0 | 4.0 | 0.00 | 0.06 | 0.00 | 57 | 1020.1 |
| 20260902170503 | 74 | 190 | 0.0 | 4.0 | 0.00 | 0.06 | 0.00 | 58 | 1020.2 |
| 20260902170105 | 73 | 190 | 0.0 | 0.0 | 0.00 | 0.06 | 0.00 | 60 | 1020.4 |
| 20260902170003 | 74 | 0 | 0.0 | 0.0 | 0.00 | 0.06 | 0.00 | 61 | 1020.2 |
| 20260902165504 | 74 | 0 | 0.0 | 0.0 | 0.00 | 0.06 | 0.00 | 62 | 1020.2 |
| 20260902165003 | 73 | 191 | 0.0 | 1.0 | 0.00 | 0.06 | 0.00 | 65 | 1020.3 |
| 20260902164605 | 73 | 190 | 0.0 | 1.0 | 0.00 | 0.54 | 0.00 | 63 | 1020.8 |
| 20260902164503 | 73 | 191 | 0.0 | 1.0 | 0.00 | 0.07 | 0.00 | 59 | 1020.6 |
| 20260902164003 | 74 | 191 | 0.0 | 3.0 | 0.00 | 0.07 | 0.00 | 60 | 1020.7 |
| 20260902163504 | 74 | 191 | 0.0 | 3.0 | 0.00 | 0.11 | 0.00 | 60 | 1020.7 |
| 20260902163103 | 74 | 190 | 0.0 | 0.0 | 0.00 | 0.54 | 0.00 | 57 | 1020.9 |
| 20260902163003 | 74 | 0 | 0.0 | 0.0 | 0.00 | 0.11 | 0.00 | 59 | 1020.7 |
| 20260902162004 | 73 | 191 | 0.0 | 1.0 | 0.00 | 0.32 | 0.00 | 66 | 1020.7 |
| 20260902161604 | 72 | 190 | 0.0 | 3.0 | 0.00 | 0.54 | 0.00 | 65 | 1021.0 |
| 20260902161504 | 72 | 191 | 0.0 | 3.0 | 0.00 | 0.49 | 0.00 | 64 | 1020.7 |
| 20260902161004 | 72 | 191 | 0.0 | 3.0 | 0.00 | 0.49 | 0.00 | 62 | 1020.8 |
| 20260902160504 | 72 | 0 | 0.0 | 0.0 | 0.00 | 0.54 | 0.00 | 67 | 1020.8 |
| 20260902160103 | 71 | 190 | 0.0 | 0.0 | 0.00 | 0.54 | 0.00 | 70 | 1021.3 |
| 20260902160003 | 71 | 0 | 0.0 | 0.0 | 0.00 | 0.54 | 0.00 | 66 | 1021.0 |
| 20260902155503 | 71 | 191 | 0.0 | 5.0 | 0.00 | 0.54 | 0.00 | 67 | 1021.1 |
| 20260902154606 | 70 | 190 | 0.0 | 5.0 | 0.00 | 0.55 | 0.00 | 66 | 1021.3 |
| 20260902154503 | 71 | 191 | 0.0 | 3.0 | 0.00 | 0.54 | 0.00 | 67 | 1020.9 |
| 20260902154003 | 70 | 191 | 0.0 | 2.0 | 0.00 | 0.54 | 0.00 | 71 | 1020.9 |
| 20260902153503 | 70 | 191 | 0.0 | 1.0 | 0.00 | 0.54 | 0.00 | 74 | 1021.0 |
| 20260902153108 | 69 | 190 | 0.0 | 1.0 | 0.00 | 0.55 | 0.00 | 71 | 1021.4 |
| 20260902152004 | 69 | 0 | 0.0 | 0.0 | 0.00 | 0.55 | 0.00 | 71 | 1021.3 |
| 20260902151603 | 68 | 190 | 0.0 | 1.0 | 0.00 | 0.55 | 0.00 | 71 | 1021.5 |
| 20260902151504 | 69 | 0 | 0.0 | 0.0 | 0.00 | 0.55 | 0.00 | 73 | 1021.3 |
| 20260902151003 | 69 | 0 | 0.0 | 0.0 | 0.00 | 0.55 | 0.00 | 71 | 1021.3 |
| 20260902145003 | 69 | 191 | 0.0 | 1.0 | 0.00 | 0.55 | 0.00 | 68 | 1021.2 |
| 20260902144603 | 68 | 190 | 0.0 | 1.0 | 0.00 | 0.57 | 0.00 | 72 | 1021.6 |
| 20260902144504 | 69 | 191 | 0.0 | 1.0 | 0.00 | 0.56 | 0.00 | 69 | 1021.3 |
| 20260902144004 | 69 | 190 | 0.0 | 2.0 | 0.00 | 0.56 | 0.00 | 71 | 1021.3 |
| 20260902143503 | 69 | 191 | 0.0 | 3.0 | 0.00 | 0.56 | 0.00 | 71 | 1021.4 |
| 20260902143102 | 68 | 190 | 0.0 | 3.0 | 0.00 | 0.57 | 0.00 | 72 | 1021.7 |
| 20260902143003 | 68 | 191 | 0.0 | 3.0 | 0.00 | 0.56 | 0.00 | 71 | 1021.4 |
| 20260902142504 | 68 | 191 | 0.0 | 3.0 | 0.00 | 0.57 | 0.00 | 73 | 1021.2 |
| 20260902142004 | 68 | 190 | 0.0 | 1.0 | 0.00 | 0.57 | 0.00 | 76 | 1021.3 |
| 20260902141604 | 67 | 190 | 0.0 | 1.0 | 0.00 | 0.57 | 0.00 | 77 | 1021.6 |
| 20260902141504 | 68 | 191 | 0.0 | 1.0 | 0.00 | 0.57 | 0.00 | 78 | 1021.3 |
| 20260902140503 | 67 | 191 | 0.0 | 1.0 | 0.00 | 0.58 | 0.00 | 77 | 1021.1 |
| 20260902140110 | 66 | 190 | 0.0 | 0.0 | 0.00 | 0.57 | 0.00 | 78 | 1021.4 |
| 20260902140003 | 67 | 190 | 0.0 | 1.0 | 0.00 | 0.58 | 0.00 | 77 | 1021.1 |
| 20260902135503 | 66 | 190 | 0.0 | 1.0 | 0.00 | 0.58 | 0.00 | 78 | 1021.1 |
| 20260902134603 | 65 | 190 | 0.0 | 0.0 | 0.00 | 0.80 | 0.00 | 80 | 1021.2 |
| 20260902134504 | 66 | 191 | 0.0 | 4.0 | 0.00 | 0.59 | 0.00 | 80 | 1020.8 |
| 20260902134004 | 65 | 191 | 0.0 | 4.0 | 0.00 | 0.59 | 0.00 | 80 | 1020.8 |
| 20260902133504 | 65 | 190 | 0.0 | 2.0 | 0.00 | 0.60 | 0.00 | 81 | 1020.7 |
| 20260902133107 | 65 | 190 | 0.0 | 1.0 | 0.00 | 0.80 | 0.00 | 81 | 1021.1 |
| 20260902132504 | 65 | 191 | 0.0 | 1.0 | 0.00 | 0.61 | 0.00 | 81 | 1020.7 |
| 20260902132003 | 65 | 0 | 0.0 | 0.0 | 0.00 | 0.61 | 0.00 | 82 | 1020.7 |
| 20260902131612 | 64 | 190 | 0.0 | 0.0 | 0.00 | 0.80 | 0.00 | 82 | 1021.0 |
| 20260902131503 | 64 | 0 | 0.0 | 0.0 | 0.00 | 0.64 | 0.00 | 82 | 1020.7 |
| 20260902131003 | 64 | 0 | 0.0 | 0.0 | 0.00 | 0.64 | 0.00 | 81 | 1020.8 |
| 20260902130503 | 64 | 0 | 0.0 | 0.0 | 0.00 | 0.64 | 0.00 | 82 | 1020.8 |
| 20260902130107 | 64 | 190 | 0.0 | 0.0 | 0.00 | 0.80 | 0.00 | 82 | 1021.1 |
| 20260902130004 | 64 | 0 | 0.0 | 0.0 | 0.00 | 0.64 | 0.00 | 82 | 1020.8 |
| 20260902125503 | 64 | 0 | 0.0 | 0.0 | 0.00 | 0.64 | 0.00 | 82 | 1020.7 |
| 20260902124510 | 64 | 190 | 0.0 | 0.0 | 0.00 | 1.54 | 0.00 | 82 | 1021.0 |
| 20260902123009 | 63 | 190 | 0.0 | 0.0 | 0.00 | 1.54 | 0.00 | 82 | 1021.0 |
| 20260902121505 | 63 | 190 | 0.0 | 0.0 | 0.00 | 1.54 | 0.00 | 82 | 1021.1 |
| 20260902120005 | 62 | 190 | 0.0 | 0.0 | 0.00 | 1.82 | 0.00 | 82 | 1021.1 |
| 20260902114503 | 62 | 190 | 0.0 | 0.0 | 0.00 | 1.82 | 0.00 | 82 | 1021.2 |
| 20260902113000 | 61 | 190 | 0.0 | 0.0 | 0.00 | 1.82 | 0.00 | 82 | 1021.3 |
| 20260902111600 | 61 | 190 | 0.0 | 0.0 | 0.00 | 1.82 | 0.00 | 82 | 1021.3 |
| 20260902110100 | 61 | 190 | 0.0 | 0.0 | 0.00 | 1.82 | 0.00 | 82 | 1021.2 |
| 20260902104609 | 61 | 190 | 0.0 | 0.0 | 0.00 | 1.86 | 0.00 | 82 | 1021.1 |
| 20260902103102 | 60 | 190 | 0.0 | 0.0 | 0.00 | 1.86 | 0.00 | 82 | 1020.9 |
| 20260902101554 | 60 | 190 | 0.0 | 0.0 | 0.00 | 1.86 | 0.00 | 82 | 1020.8 |
| 20260902100052 | 60 | 190 | 0.0 | 0.0 | 0.00 | 1.88 | 0.00 | 82 | 1020.7 |
| 20260902094550 | 60 | 190 | 0.0 | 0.0 | 0.00 | 1.88 | 0.00 | 82 | 1020.5 |
| 20260902093049 | 60 | 190 | 0.0 | 0.0 | 0.00 | 1.88 | 0.00 | 82 | 1020.4 |
| 20260902091553 | 60 | 190 | 0.0 | 0.0 | 0.00 | 1.88 | 0.00 | 82 | 1020.3 |
| 20260902090047 | 60 | 190 | 0.0 | 0.0 | 0.00 | 1.88 | 0.00 | 82 | 1020.1 |
| 20260902084546 | 60 | 190 | 0.0 | 0.0 | 0.00 | 1.88 | 0.00 | 82 | 1020.1 |
| 20260902083106 | 60 | 190 | 0.0 | 0.0 | 0.00 | 1.88 | 0.00 | 82 | 1019.9 |
| 20260902081546 | 60 | 190 | 0.0 | 0.0 | 0.00 | 1.88 | 0.00 | 82 | 1019.8 |
| 20260902080044 | 60 | 190 | 0.0 | 0.0 | 0.00 | 1.89 | 0.00 | 82 | 1019.9 |
| 20260902074544 | 60 | 190 | 0.0 | 0.0 | 0.00 | 1.89 | 0.00 | 82 | 1020.0 |
| 20260902073042 | 60 | 190 | 0.0 | 0.0 | 0.00 | 1.89 | 0.00 | 82 | 1020.0 |
| 20260902071542 | 60 | 190 | 0.0 | 0.0 | 0.00 | 1.89 | 0.00 | 82 | 1019.9 |
| 20260902070043 | 60 | 190 | 0.0 | 0.0 | 0.00 | 1.89 | 0.00 | 82 | 1020.1 |
| 20260902064545 | 60 | 190 | 0.0 | 0.0 | 0.00 | 1.89 | 0.00 | 82 | 1020.4 |
| 20260902063042 | 60 | 190 | 0.0 | 0.0 | 0.00 | 1.89 | 0.00 | 82 | 1020.1 |
| 20260902061545 | 60 | 190 | 0.0 | 0.0 | 0.00 | 1.89 | 0.00 | 82 | 1020.1 |
| 20260902060036 | 60 | 190 | 0.0 | 0.0 | 0.00 | 1.89 | 0.00 | 82 | 1020.0 |
| 20260902054539 | 60 | 190 | 0.0 | 0.0 | 0.00 | 1.89 | 0.00 | 82 | 1020.0 |
| 20260902053035 | 60 | 190 | 0.0 | 0.0 | 0.00 | 1.89 | 0.00 | 82 | 1020.0 |
| 20260902051534 | 60 | 190 | 0.0 | 0.0 | 0.00 | 1.89 | 0.00 | 82 | 1019.7 |
| 20260902050032 | 60 | 190 | 0.0 | 0.0 | 0.00 | 1.89 | 0.00 | 82 | 1019.8 |
| 20260902044531 | 60 | 190 | 0.0 | 0.0 | 0.00 | 1.89 | 0.00 | 82 | 1019.5 |
| 20260902043038 | 60 | 190 | 0.0 | 0.0 | 0.00 | 1.89 | 0.00 | 82 | 1019.4 |
| 20260902041525 | 60 | 190 | 0.0 | 0.0 | 0.00 | 1.89 | 0.00 | 82 | 1019.4 |
| 20260902040022 | 60 | 190 | 0.0 | 0.0 | 0.00 | 1.89 | 1.89 | 82 | 1019.1 |
| 20260902034522 | 60 | 190 | 0.0 | 0.0 | 0.00 | 1.89 | 1.89 | 83 | 1019.0 |
| 20260902033504 | 61 | 0 | 0.0 | 0.0 | 0.00 | 0.70 | 0.70 | 82 | 1018.6 |
| 20260902033013 | 61 | 190 | 0.0 | 0.0 | 0.00 | 1.89 | 1.89 | 82 | 1018.8 |
| 20260902033004 | 61 | 0 | 0.0 | 0.0 | 0.00 | 0.70 | 0.70 | 82 | 1018.5 |
| 20260902032504 | 61 | 0 | 0.0 | 0.0 | 0.00 | 0.70 | 0.70 | 82 | 1018.3 |
| 20260902032003 | 61 | 0 | 0.0 | 0.0 | 0.00 | 0.70 | 0.70 | 82 | 1018.3 |
| 20260902031520 | 61 | 190 | 0.0 | 0.0 | 0.00 | 1.89 | 1.89 | 82 | 1018.5 |
| 20260902031504 | 61 | 0 | 0.0 | 0.0 | 0.00 | 0.70 | 0.70 | 82 | 1018.3 |
| 20260902031004 | 61 | 0 | 0.0 | 0.0 | 0.00 | 0.70 | 0.70 | 82 | 1018.2 |
| 20260902030503 | 61 | 0 | 0.0 | 0.0 | 0.00 | 1.89 | 0.70 | 82 | 1018.2 |
| 20260902030013 | 61 | 190 | 0.0 | 0.0 | 0.00 | 1.89 | 1.89 | 82 | 1018.4 |
| 20260902030004 | 61 | 0 | 0.0 | 0.0 | 0.00 | 1.89 | 0.70 | 82 | 1018.2 |
| 20260902025504 | 61 | 0 | 0.0 | 0.0 | 0.00 | 1.89 | 0.70 | 82 | 1018.3 |
| 20260902024514 | 61 | 190 | 0.0 | 0.0 | 0.00 | 1.89 | 1.89 | 82 | 1018.7 |
| 20260902024504 | 62 | 0 | 0.0 | 0.0 | 0.00 | 1.89 | 0.70 | 82 | 1018.4 |
| 20260902024004 | 62 | 0 | 0.0 | 0.0 | 0.00 | 1.89 | 0.70 | 82 | 1018.4 |
| 20260902023504 | 62 | 0 | 0.0 | 0.0 | 0.00 | 1.89 | 0.70 | 82 | 1018.5 |
| 20260902023027 | 61 | 190 | 0.0 | 0.0 | 0.00 | 1.89 | 1.89 | 82 | 1018.6 |
| 20260902023004 | 62 | 0 | 0.0 | 0.0 | 0.00 | 1.89 | 0.70 | 82 | 1018.3 |
| 20260902022004 | 62 | 0 | 0.0 | 0.0 | 0.00 | 1.89 | 0.70 | 82 | 1018.3 |
| 20260902021504 | 62 | 0 | 0.0 | 0.0 | 0.00 | 1.89 | 0.70 | 82 | 1018.5 |
| 20260902021003 | 62 | 0 | 0.0 | 0.0 | 0.00 | 1.89 | 0.70 | 82 | 1018.4 |
| 20260902020504 | 62 | 0 | 0.0 | 0.0 | 0.00 | 1.89 | 0.70 | 82 | 1018.5 |
| 20260902020020 | 61 | 190 | 0.0 | 0.0 | 0.00 | 1.89 | 1.89 | 82 | 1018.8 |
| 20260902020004 | 62 | 0 | 0.0 | 0.0 | 0.00 | 1.89 | 0.70 | 82 | 1018.6 |
| 20260902015505 | 62 | 0 | 0.0 | 0.0 | 0.00 | 1.89 | 0.70 | 82 | 1018.6 |
| 20260902015004 | 62 | 0 | 0.0 | 0.0 | 0.00 | 1.89 | 0.70 | 82 | 1018.5 |
| 20260902014519 | 61 | 190 | 0.0 | 0.0 | 0.00 | 1.89 | 1.89 | 82 | 1018.6 |
| 20260902014504 | 62 | 0 | 0.0 | 0.0 | 0.00 | 1.89 | 0.70 | 82 | 1018.3 |
| 20260902014005 | 62 | 0 | 0.0 | 0.0 | 0.00 | 1.89 | 0.70 | 82 | 1018.3 |
| 20260902013504 | 62 | 0 | 0.0 | 0.0 | 0.00 | 1.89 | 0.70 | 82 | 1018.3 |
| 20260902013013 | 62 | 190 | 0.0 | 0.0 | 0.00 | 1.89 | 1.89 | 82 | 1018.4 |
| 20260902013004 | 62 | 0 | 0.0 | 0.0 | 0.00 | 1.89 | 0.70 | 82 | 1018.2 |
| 20260902012504 | 62 | 0 | 0.0 | 0.0 | 0.00 | 1.89 | 0.70 | 82 | 1018.3 |
| 20260902012004 | 62 | 0 | 0.0 | 0.0 | 0.00 | 1.89 | 0.70 | 82 | 1018.3 |
| 20260902011512 | 62 | 190 | 0.0 | 0.0 | 0.00 | 1.89 | 1.89 | 82 | 1018.4 |
| 20260902011504 | 62 | 0 | 0.0 | 0.0 | 0.00 | 1.89 | 0.70 | 82 | 1018.2 |
| 20260902011004 | 62 | 0 | 0.0 | 0.0 | 0.00 | 1.89 | 0.70 | 82 | 1018.2 |
| 20260902010504 | 62 | 0 | 0.0 | 0.0 | 0.00 | 1.89 | 0.70 | 82 | 1018.0 |
| 20260902010013 | 62 | 190 | 0.0 | 0.0 | 0.00 | 1.89 | 1.89 | 82 | 1018.1 |
| 20260902010005 | 62 | 0 | 0.0 | 0.0 | 0.00 | 1.89 | 0.70 | 82 | 1017.9 |
| 20260902005504 | 62 | 0 | 0.0 | 0.0 | 0.00 | 1.89 | 0.70 | 82 | 1018.1 |
| 20260902005004 | 62 | 0 | 0.0 | 0.0 | 0.00 | 1.89 | 0.70 | 82 | 1018.1 |
| 20260902004514 | 62 | 190 | 0.0 | 0.0 | 0.00 | 1.89 | 1.89 | 82 | 1018.3 |
| 20260902004504 | 62 | 0 | 0.0 | 0.0 | 0.00 | 1.89 | 0.70 | 82 | 1018.2 |
| 20260902004004 | 62 | 0 | 0.0 | 0.0 | 0.00 | 1.89 | 0.70 | 82 | 1018.1 |
| 20260902003504 | 62 | 0 | 0.0 | 0.0 | 0.00 | 1.89 | 0.70 | 82 | 1018.0 |
| 20260902003012 | 62 | 190 | 0.0 | 0.0 | 0.00 | 1.89 | 1.89 | 82 | 1018.0 |
| 20260902003004 | 62 | 0 | 0.0 | 0.0 | 0.00 | 1.89 | 0.70 | 82 | 1017.8 |
| 20260902002504 | 62 | 0 | 0.0 | 0.0 | 0.00 | 1.89 | 0.70 | 82 | 1017.6 |
| 20260902002004 | 63 | 0 | 0.0 | 0.0 | 0.00 | 1.89 | 0.70 | 82 | 1017.6 |
| 20260902001513 | 62 | 190 | 0.0 | 0.0 | 0.00 | 1.89 | 1.89 | 82 | 1017.6 |
| 20260902001504 | 63 | 0 | 0.0 | 0.0 | 0.00 | 1.89 | 0.70 | 82 | 1017.4 |
| 20260902001004 | 63 | 0 | 0.0 | 0.0 | 0.00 | 1.89 | 0.70 | 82 | 1017.5 |
| 20260902000504 | 63 | 0 | 0.0 | 0.0 | 0.00 | 1.89 | 0.70 | 82 | 1017.6 |
| 20260902000012 | 62 | 190 | 0.0 | 0.0 | 0.00 | 1.89 | 1.89 | 82 | 1017.7 |
| 20260902000004 | 63 | 0 | 0.0 | 0.0 | 0.00 | 1.89 | 0.70 | 82 | 1017.5 |
| 20260901235504 | 63 | 0 | 0.0 | 0.0 | 0.00 | 1.89 | 0.70 | 82 | 1017.5 |
| 20260901235004 | 63 | 0 | 0.0 | 0.0 | 0.00 | 1.89 | 0.70 | 82 | 1017.6 |
| 20260901234513 | 62 | 190 | 0.0 | 0.0 | 0.00 | 1.89 | 1.89 | 82 | 1017.7 |
| 20260901234504 | 63 | 0 | 0.0 | 0.0 | 0.00 | 1.89 | 0.70 | 82 | 1017.5 |
| 20260901234004 | 63 | 0 | 0.0 | 0.0 | 0.00 | 1.89 | 0.70 | 82 | 1017.4 |
| 20260901233504 | 63 | 0 | 0.0 | 0.0 | 0.00 | 1.89 | 0.70 | 82 | 1017.4 |
| 20260901233013 | 62 | 190 | 0.0 | 0.0 | 0.00 | 1.89 | 1.89 | 82 | 1017.6 |
| 20260901232504 | 63 | 0 | 0.0 | 0.0 | 0.00 | 1.89 | 0.70 | 82 | 1017.4 |
| 20260901232004 | 63 | 0 | 0.0 | 0.0 | 0.00 | 1.89 | 0.70 | 82 | 1017.5 |
| 20260901231513 | 63 | 190 | 0.0 | 0.0 | 0.00 | 1.89 | 1.89 | 82 | 1017.8 |
| 20260901231504 | 63 | 0 | 0.0 | 0.0 | 0.00 | 1.89 | 0.70 | 82 | 1017.7 |
| 20260901231004 | 63 | 0 | 0.0 | 0.0 | 0.00 | 1.89 | 0.70 | 82 | 1017.7 |
| 20260901230504 | 63 | 0 | 0.0 | 0.0 | 0.00 | 1.89 | 0.70 | 82 | 1017.5 |
| 20260901230012 | 63 | 190 | 0.0 | 0.0 | 0.00 | 1.89 | 1.89 | 82 | 1017.7 |
| 20260901230004 | 63 | 0 | 0.0 | 0.0 | 0.00 | 1.89 | 0.70 | 82 | 1017.5 |
| 20260901225504 | 63 | 0 | 0.0 | 0.0 | 0.00 | 1.89 | 0.70 | 82 | 1017.4 |
| 20260901224523 | 63 | 190 | 0.0 | 0.0 | 0.00 | 1.89 | 1.89 | 82 | 1017.6 |
| 20260901224503 | 63 | 0 | 0.0 | 0.0 | 0.00 | 1.89 | 0.70 | 82 | 1017.5 |
| 20260901224004 | 64 | 0 | 0.0 | 0.0 | 0.00 | 1.89 | 0.70 | 82 | 1017.4 |
| 20260901223504 | 64 | 0 | 0.0 | 0.0 | 0.00 | 1.89 | 0.70 | 82 | 1017.3 |
| 20260901223013 | 63 | 190 | 0.0 | 0.0 | 0.00 | 1.89 | 1.89 | 82 | 1017.4 |
| 20260901223005 | 64 | 0 | 0.0 | 0.0 | 0.00 | 1.89 | 0.70 | 82 | 1017.2 |
| 20260901222503 | 64 | 0 | 0.0 | 0.0 | 0.00 | 1.89 | 0.70 | 82 | 1017.2 |
| 20260901222004 | 64 | 0 | 0.0 | 0.0 | 0.00 | 1.89 | 0.70 | 82 | 1017.2 |
| 20260901221552 | 63 | 190 | 0.0 | 0.0 | 0.00 | 1.89 | 1.89 | 82 | 1017.5 |
| 20260901221004 | 64 | 0 | 0.0 | 0.0 | 0.00 | 1.89 | 0.70 | 82 | 1017.2 |
| 20260901220504 | 64 | 0 | 0.0 | 0.0 | 0.00 | 1.89 | 0.70 | 82 | 1017.1 |
| 20260901220012 | 63 | 190 | 0.0 | 0.0 | 0.00 | 1.89 | 1.89 | 82 | 1017.3 |
| 20260901215503 | 63 | 0 | 0.0 | 0.0 | 0.00 | 1.89 | 0.70 | 82 | 1017.1 |
| 20260901214511 | 63 | 190 | 0.0 | 0.0 | 0.00 | 1.89 | 1.89 | 82 | 1017.2 |
| 20260901214503 | 63 | 0 | 0.0 | 0.0 | 0.00 | 1.89 | 0.70 | 82 | 1017.1 |
| 20260901214004 | 63 | 0 | 0.0 | 0.0 | 0.00 | 1.89 | 0.70 | 82 | 1017.2 |
| 20260901213504 | 63 | 0 | 0.0 | 0.0 | 0.00 | 1.89 | 0.70 | 82 | 1017.1 |
| 20260901213020 | 63 | 190 | 0.0 | 0.0 | 0.00 | 1.89 | 1.89 | 82 | 1017.1 |
| 20260901213004 | 63 | 0 | 0.0 | 0.0 | 0.00 | 1.89 | 0.70 | 82 | 1016.9 |
| 20260901212504 | 63 | 0 | 0.0 | 0.0 | 0.00 | 1.89 | 0.70 | 82 | 1016.9 |
| 20260901212004 | 63 | 0 | 0.0 | 0.0 | 0.00 | 1.89 | 0.70 | 82 | 1016.9 |
| 20260901211515 | 63 | 190 | 0.0 | 0.0 | 0.00 | 1.89 | 1.89 | 82 | 1017.1 |
| 20260901211504 | 63 | 0 | 0.0 | 0.0 | 0.00 | 1.89 | 0.70 | 82 | 1016.9 |
| 20260901210013 | 63 | 190 | 0.0 | 0.0 | 0.00 | 1.89 | 1.89 | 82 | 1017.0 |
| 20260901210003 | 63 | 0 | 0.0 | 0.0 | 0.00 | 1.89 | 0.70 | 82 | 1016.9 |
| 20260901205504 | 63 | 191 | 0.0 | 3.0 | 0.00 | 1.89 | 0.70 | 82 | 1016.8 |
| 20260901205004 | 63 | 191 | 0.0 | 3.0 | 0.00 | 1.89 | 0.70 | 82 | 1016.7 |
| 20260901204516 | 63 | 190 | 0.0 | 0.0 | 0.00 | 1.89 | 1.89 | 82 | 1016.7 |
| 20260901204504 | 63 | 191 | 0.0 | 1.0 | 0.00 | 1.89 | 0.70 | 82 | 1016.7 |
| 20260901204004 | 63 | 191 | 0.0 | 1.0 | 0.00 | 1.89 | 0.70 | 82 | 1016.7 |
| 20260901203504 | 64 | 190 | 0.0 | 4.0 | 0.00 | 1.89 | 0.70 | 82 | 1016.6 |
| 20260901203013 | 63 | 190 | 0.0 | 4.0 | 0.00 | 1.89 | 1.89 | 82 | 1016.7 |
| 20260901203004 | 64 | 191 | 0.0 | 4.0 | 0.00 | 1.89 | 0.70 | 82 | 1016.6 |
| 20260901202504 | 64 | 191 | 0.0 | 2.0 | 0.00 | 1.89 | 0.70 | 82 | 1016.5 |
| 20260901202003 | 64 | 191 | 0.0 | 2.0 | 0.00 | 1.89 | 0.70 | 82 | 1016.4 |
| 20260901201512 | 63 | 190 | 0.0 | 1.0 | 0.00 | 1.89 | 1.89 | 82 | 1016.5 |
| 20260901201504 | 64 | 191 | 0.0 | 1.0 | 0.00 | 1.89 | 0.70 | 82 | 1016.4 |
| 20260901201004 | 64 | 191 | 0.0 | 2.0 | 0.00 | 1.89 | 0.70 | 82 | 1016.3 |
| 20260901200503 | 64 | 191 | 0.0 | 3.0 | 0.00 | 1.89 | 0.70 | 82 | 1016.4 |
| 20260901200025 | 64 | 190 | 0.0 | 3.0 | 0.00 | 1.89 | 1.89 | 82 | 1016.4 |
| 20260901200004 | 64 | 191 | 0.0 | 3.0 | 0.00 | 1.89 | 0.70 | 82 | 1016.3 |
| 20260901195504 | 65 | 191 | 0.0 | 2.0 | 0.01 | 1.89 | 0.70 | 82 | 1016.3 |
| 20260901195003 | 65 | 191 | 0.0 | 2.0 | 0.01 | 1.89 | 0.70 | 82 | 1016.3 |
| 20260901194514 | 64 | 190 | 0.0 | 1.0 | 0.01 | 1.89 | 1.89 | 82 | 1016.4 |
| 20260901193504 | 65 | 191 | 0.0 | 2.0 | 0.01 | 1.89 | 0.70 | 82 | 1016.3 |
| 20260901193013 | 64 | 190 | 0.0 | 0.0 | 0.02 | 1.89 | 1.89 | 82 | 1016.4 |
| 20260901193004 | 65 | 0 | 0.0 | 0.0 | 0.02 | 1.89 | 0.70 | 82 | 1016.2 |
| 20260901192504 | 65 | 191 | 0.0 | 1.0 | 0.02 | 1.89 | 0.70 | 82 | 1016.2 |
| 20260901192004 | 65 | 190 | 0.0 | 1.0 | 0.03 | 1.89 | 0.70 | 82 | 1016.2 |
| 20260901191520 | 65 | 190 | 0.0 | 1.0 | 0.03 | 1.89 | 1.89 | 82 | 1016.3 |
| 20260901191503 | 65 | 191 | 0.0 | 1.0 | 0.03 | 1.89 | 0.70 | 82 | 1016.1 |
| 20260901191004 | 66 | 191 | 0.0 | 4.0 | 0.04 | 1.89 | 0.70 | 82 | 1016.1 |
| 20260901190503 | 66 | 190 | 0.0 | 4.0 | 0.04 | 1.89 | 0.70 | 82 | 1016.1 |
| 20260901190020 | 65 | 190 | 0.0 | 2.0 | 0.04 | 1.89 | 1.89 | 82 | 1016.2 |
| 20260901185504 | 66 | 191 | 0.0 | 2.0 | 0.04 | 1.88 | 0.69 | 82 | 1016.2 |
| 20260901185004 | 66 | 191 | 0.0 | 4.0 | 0.04 | 1.88 | 0.69 | 82 | 1016.2 |
| 20260901184513 | 65 | 190 | 0.0 | 4.0 | 0.04 | 1.88 | 1.88 | 82 | 1016.2 |
| 20260901184504 | 66 | 191 | 0.0 | 4.0 | 0.04 | 1.88 | 0.69 | 82 | 1016.0 |
| 20260901183504 | 66 | 0 | 0.0 | 0.0 | 0.05 | 1.88 | 0.69 | 82 | 1016.1 |
| 20260901183012 | 66 | 190 | 0.0 | 5.0 | 0.04 | 1.87 | 1.87 | 82 | 1016.1 |
| 20260901183004 | 66 | 191 | 0.0 | 5.0 | 0.04 | 1.87 | 0.68 | 82 | 1016.0 |
| 20260901182503 | 66 | 191 | 0.0 | 5.0 | 0.04 | 1.87 | 0.68 | 82 | 1016.0 |
| 20260901182004 | 66 | 191 | 0.0 | 2.0 | 0.03 | 1.86 | 0.67 | 82 | 1015.9 |
| 20260901181519 | 66 | 190 | 0.0 | 2.0 | 0.03 | 1.86 | 1.86 | 82 | 1016.0 |
| 20260901181504 | 66 | 191 | 0.0 | 2.0 | 0.03 | 1.86 | 0.67 | 82 | 1015.9 |
| 20260901181003 | 67 | 0 | 0.0 | 0.0 | 0.02 | 1.85 | 0.66 | 82 | 1015.9 |
| 20260901180504 | 67 | 0 | 0.0 | 0.0 | 0.02 | 1.85 | 0.66 | 82 | 1015.8 |
| 20260901180013 | 66 | 190 | 0.0 | 0.0 | 0.01 | 1.84 | 1.84 | 82 | 1016.0 |
| 20260901180004 | 67 | 0 | 0.0 | 0.0 | 0.01 | 1.84 | 0.65 | 82 | 1015.8 |
| 20260901175504 | 67 | 0 | 0.0 | 0.0 | 0.02 | 1.84 | 0.65 | 82 | 1015.8 |
| 20260901175003 | 67 | 0 | 0.0 | 0.0 | 0.02 | 1.84 | 0.65 | 82 | 1015.7 |
| 20260901174513 | 66 | 190 | 0.0 | 0.0 | 0.03 | 1.84 | 1.84 | 82 | 1015.8 |
| 20260901174504 | 67 | 0 | 0.0 | 0.0 | 0.03 | 1.84 | 0.65 | 82 | 1015.6 |